Location: Fort Worth, Tx
(32.7431°N, 97.3695°W)
Time: 20:46:51
(UTC-05:00)

Tiros 1 - Pass Details

Date: 06 October 2024
Orbit: 622 x 654 km, 48.4° (Epoch: 05 November)

Event Time Altitude Azimuth Distance (km) Brightness Sun altitude
Rises 11:52:08 0° 293° (WNW) 2,919 10.1 38.5°
Reaches altitude 10° 11:55:48 10° 323° (NW) 2,004 9.3 39.1°
Maximum altitude 11:57:49 13° 349° (N) 1,834 9.2 39.4°
Drops below altitude 10° 11:59:48 10° 15° (NNE) 1,997 9.5 39.7°
Sets 12:03:28 0° 45° (NE) 2,900 10.5 40.3°
